Location: Poprad
(0.0000°N, 20.3000°E)
Time: 01:15:52
(UTC+02:00)

Daily predictions for brighter satellites

Satellite Brightness Start Highest point End
(mag) Time Altitude Azimuth Time Altitude Azimuth Time Altitude Azimuth
ARIANE 5 R/B 4.5 03:25:53 64° ENE 03:25:53 64° ENE 04:06:40 10° E
ARIANE 5 R/B 4.5 03:25:53 64° ENE 03:25:53 64° ENE 04:06:41 10° E
Cosmos 1980 Rocket 4.3 04:07:06 17° N 04:07:06 17° N 04:08:18 10° N
ARIANE 5 DEB (SYLDA) 4.2 04:03:50 78° N 04:03:50 78° N 04:13:01 10° E
Atlas Centaur 2 3.1 04:10:07 50° NE 04:10:07 50° NE 04:14:15 10° NE
ARIANE 5 R/B 3.0 04:13:33 64° SE 04:13:33 64° SE 04:33:05 10° E
CENTAUR R/B 4.0 04:13:33 21° SE 04:14:28 22° ESE 04:18:26 10° ENE
Aurora 2 Rocket 4.3 04:15:07 51° SSE 04:15:18 52° SSE 04:24:15 10° ENE
ATLAS 2A CENTAUR R/B 4.3 04:17:19 34° NE 04:17:19 34° NE 04:22:30 10° ENE
BREEZE-M DEB (TANK) 4.5 04:21:09 35° N 04:21:09 35° N 04:28:46 10° NNE
SL-16 R/B 3.2 04:25:03 34° SE 04:26:37 42° ESE 04:31:53 10° NE
Cosmos 2227 Rocket 4.4 04:28:05 10° NNE 04:32:30 24° ENE 04:36:55 10° SE
SEDSat Delta rocket 3.9 04:36:16 47° NNE 04:36:16 47° NNE 04:39:31 10° NE
Cosmos 2297 Rocket 3.5 04:31:29 10° N 04:36:40 38° ENE 04:41:51 10° SE
BREEZE-M DEB (TANK) 3.9 04:39:11 44° ESE 04:39:11 44° ESE 04:44:03 10° SE
METEOR-M 4.1 04:35:37 10° NNE 04:40:56 79° ESE 04:41:52 61° S
ALOS 3.4 04:39:55 10° N 04:42:30 32° N 04:42:30 32° N
ERBS 3.7 04:56:29 32° ESE 04:56:29 32° ESE 04:58:32 10° SE
Cosmos 2322 Rocket 2.4 04:56:22 23° S 04:59:53 71° ESE 05:05:29 10° NNE
SWIFT 2.3 05:03:36 66° NW 05:03:54 69° NNW 05:08:07 10° ENE
ARIANE 5 DEB (SYLDA) 3.5 05:02:29 45° WSW 05:03:56 72° S 05:07:35 10° E
Meteor 1-31 Rocket 3.5 05:00:40 10° NNE 05:04:28 51° ESE 05:07:25 16° S
NOSS 3-2 (A) 3.1 05:03:55 49° W 05:04:37 52° WNW 05:09:47 10° N
Cosmos 1484 Rocket 4.2 05:01:35 10° N 05:03:34 26° NNW 05:03:34 26° NNW
Ariane H10 2.2 05:05:54 62° NW 05:06:17 71° N 05:12:16 10° E
ARIANE 5 R/B 2.4 05:06:23 47° SSW 05:07:07 56° S 05:19:22 10° E
Cosmos 2219 3.4 05:01:57 10° N 05:07:39 73° ENE 05:13:23 10° SSE
Ariane H10 3.5 04:59:16 24° W 05:09:41 86° S 05:13:55 10° E
USA 238 DEB 3.5 05:08:57 28° SW 05:12:32 71° WNW 05:18:58 10° NNE
USA 238 3.4 05:09:01 28° SW 05:12:39 72° WNW 05:19:04 10° NNE
CZ-3 R/B 3.7 04:36:10 10° WNW 05:15:14 56° SW 05:24:28 10° SE
GPS 2-18 Rocket1 3.8 05:20:25 22° NW 05:22:38 50° NNE 05:26:27 10° E
Okean 1-7 Rocket 3.5 05:20:13 17° SSW 05:23:30 62° W 05:27:54 10° N
Cosmos 1300 4.0 05:20:58 10° NNW 05:22:56 24° NW 05:22:56 24° NW
Timation 2 Rocket 3.9 05:18:31 10° NNW 05:24:34 87° WSW 05:30:52 10° SSE
H-2A R/B 3.7 05:21:50 10° NNE 05:25:26 47° E 05:29:06 10° S
SL-24 R/B 3.6 05:21:41 10° S 05:25:41 75° WSW 05:29:21 10° NNW
Cosmos 2360 Rocket 2.5 05:22:50 10° S 05:28:27 68° ESE 05:34:04 10° NNE
Cosmos 614 Rocket 4.3 05:25:01 10° NNW 05:29:47 41° WSW 05:34:37 10° S
BLOCK DM-SL R/B 3.2 05:20:36 19° W 05:32:09 88° S 05:35:45 10° E
Cosmos 1464 Rocket 3.9 05:26:10 10° N 05:32:21 82° W 05:38:38 10° S
Cosmos 2228 2.9 05:28:29 10° NNW 05:32:43 65° W 05:37:01 10° S
Centaur D-1AR AC-38 3.1 05:29:33 16° WNW 05:33:00 85° SSW 05:36:57 10° ESE
Cosmos 1513 Rocket 4.4 05:27:54 10° N 05:33:58 71° W 05:40:01 10° S
ASTEX 1 3.8 05:30:28 10° SSE 05:35:21 67° E 05:40:14 10° N
SJ-12 4.0 05:32:11 10° N 05:36:11 52° WNW 05:40:12 10° SSW
GPS 2-17 Rocket1 3.6 05:32:12 11° NW 05:36:20 52° NNE 05:40:36 10° E
Cosmos 2034 Rocket 4.3 05:30:43 10° N 05:36:58 71° E 05:43:12 10° S
Cosmos 407 Rocket 3.5 05:31:58 10° NNW 05:37:18 82° WSW 05:42:37 10° S
Cosmos 1346 Rocket 4.4 05:38:51 17° WNW 05:38:51 17° WNW 05:40:56 10° NW
Cosmos 1331 Rocket 4.3 05:40:01 10° SSW 05:44:54 44° WNW 05:49:45 10° N
Cosmos 1455 3.1 05:42:18 10° N 05:46:03 53° E 05:49:49 10° SSE
Cosmos 1328 3.8 05:42:31 10° SSW 05:46:32 65° W 05:50:32 10° N
Gblst 52 Del rocket 4.1 05:43:35 10° NW 05:49:02 79° SW 05:54:49 10° SSE
Cosmos 2333 Rocket 3.5 05:47:10 10° S 05:52:32 42° ESE 05:57:55 10° NE
ARIANE 5 DEB (SYLDA) 4.4 05:44:27 12° W 05:53:22 79° N 06:01:52 10° E
Cosmos 405 3.8 05:53:19 10° NW 05:56:20 28° W 05:59:22 10° SSW
Atlas Centaur 2 3.9 05:53:20 10° WNW 05:57:17 17° NW 06:00:44 10° N
Envisat 3.0 05:53:06 10° N 05:58:09 75° WNW 06:03:13 10° SSW
IUS-15 SRM-1 4.5 05:57:51 10° W 06:01:23 21° NW 06:03:12 10° NNE
Cosmos 1441 Rocket 3.3 05:59:13 10° SSW 06:02:54 51° W 06:06:37 10° N
CENTAUR R/B 3.4 06:00:51 10° WSW 06:04:40 21° WNW 06:08:41 10° NNW
COSMOS 2455 3.5 06:00:45 10° NW 06:05:56 31° WSW 06:11:07 10° S
deb Centaur AC-2 4.4 06:03:00 10° WSW 06:07:31 52° NNW 06:11:41 10° NE
Myojo/LAPS 4.5 06:04:19 10° SW 06:07:36 75° SSE 06:20:23 10° ENE
ARIANE 5 DEB (SYLDA) 3.6 06:05:46 10° WSW 06:09:17 50° S 06:17:22 10° E
SL-16 R/B 3.9 06:07:57 10° W 06:10:25 13° WNW 06:12:53 10° NW
ARIANE 5 DEB (SYLDA) 3.0 06:07:07 10° WSW 06:10:46 29° S 06:12:59 10° ESE
Cosmos 2058 Rocket 3.1 06:06:21 10° NNW 06:10:47 65° W 06:15:15 10° S
APEX 4.5 06:05:46 10° NNW 06:11:33 83° WSW 06:18:21 10° SSE
CZ-4C R/B 3.5 06:08:22 10° S 06:11:36 37° WSW 06:14:43 10° NNW
Ariane H10 2.7 06:10:21 10° WNW 06:12:23 36° N 06:14:34 10° ENE
Ariane H10+ 2.0 06:07:26 10° W 06:12:38 33° SSW 06:15:04 10° SE
Cosmos 2227 Rocket 3.2 06:11:53 10° NW 06:16:15 23° WSW 06:20:39 10° SSW
H-2A R/B 4.3 06:13:51 10° W 06:19:23 16° SW 06:22:05 10° SSW
BLOCK DM-SL R/B 2.8 06:26:07 10° W 06:45:31 87° S 06:49:01 10° E
